Time,TemperatureF,DewpointF,PressureIn,WindDirection,WindDirectionDegrees,WindSpeedMPH,WindSpeedGustMPH,Humidity,HourlyPrecipIn,Conditions,Clouds,dailyrainin,SolarRadiationWatts/m^2,SoftwareType,DateUTC
2013-08-18 00:01:00,65.3,63.5,30.06,NE,55,0.0,0.0,94,0.00,,---,0.00,0.00,VWS V14.01,2013-08-18 04:01:00,
2013-08-18 00:02:00,65.3,63.5,30.06,NE,55,0.0,0.0,94,0.00,,---,0.00,0.00,VWS V14.01,2013-08-18 04:02:00,
2013-08-18 00:03:00,65.3,63.5,30.06,NE,55,0.0,0.0,94,0.00,,---,0.00,0.00,VWS V14.01,2013-08-18 04:03:00,
2013-08-18 00:04:00,65.2,63.4,30.06,NE,55,0.0,0.0,94,0.00,,---,0.00,0.00,VWS V14.01,2013-08-18 04:04:00,
2013-08-18 00:09:00,65.1,63.3,30.07,NE,55,0.0,0.0,94,0.00,,---,0.00,0.00,VWS V14.01,2013-08-18 04:09:00,
2013-08-18 00:14:00,65.1,63.6,30.06,NE,55,0.0,0.0,95,0.00,,---,0.00,0.00,VWS V14.01,2013-08-18 04:14:00,
2013-08-18 00:19:00,65.0,63.5,30.07,NE,55,0.0,0.0,95,0.00,,---,0.00,0.00,VWS V14.01,2013-08-18 04:19:00,
2013-08-18 00:24:00,64.9,63.4,30.07,NE,55,0.0,0.0,95,0.00,,---,0.00,0.00,VWS V14.01,2013-08-18 04:24:00,
2013-08-18 00:29:00,64.9,63.4,30.07,NE,55,0.0,0.0,95,0.01,,---,0.01,0.00,VWS V14.01,2013-08-18 04:29:00,
2013-08-18 00:34:00,64.8,63.3,30.07,NE,55,0.0,0.0,95,0.01,,---,0.01,0.00,VWS V14.01,2013-08-18 04:34:00,
2013-08-18 00:39:00,64.7,63.2,30.07,NE,55,0.0,0.0,95,0.01,,---,0.01,0.00,VWS V14.01,2013-08-18 04:39:00,
2013-08-18 00:44:00,64.7,63.2,30.06,NE,55,0.0,0.0,95,0.01,,---,0.01,0.00,VWS V14.01,2013-08-18 04:44:00,
2013-08-18 00:49:00,64.7,63.2,30.06,NE,55,0.0,0.0,95,0.01,,---,0.01,0.00,VWS V14.01,2013-08-18 04:49:00,
2013-08-18 00:54:00,64.7,63.2,30.06,NE,55,0.0,0.0,95,0.01,,---,0.01,0.00,VWS V14.01,2013-08-18 04:54:00,
2013-08-18 01:00:00,64.6,63.4,30.07,NE,55,0.0,0.0,96,0.01,,---,0.01,0.00,VWS V14.01,2013-08-18 05:00:00,
2013-08-18 01:05:00,64.6,63.4,30.06,NE,55,0.0,0.0,96,0.01,,---,0.01,0.00,VWS V14.01,2013-08-18 05:05:00,
2013-08-18 01:10:00,64.6,63.4,30.06,NE,55,0.0,0.0,96,0.01,,---,0.01,0.00,VWS V14.01,2013-08-18 05:10:00,
2013-08-18 01:15:00,64.5,63.3,30.06,NE,55,0.0,0.0,96,0.01,,---,0.01,0.00,VWS V14.01,2013-08-18 05:15:00,
2013-08-18 01:20:00,64.5,63.3,30.06,NE,55,0.0,0.0,96,0.01,,---,0.01,0.00,VWS V14.01,2013-08-18 05:20:00,
2013-08-18 01:25:00,64.4,63.2,30.05,NE,55,0.0,0.0,96,0.01,,---,0.01,0.00,VWS V14.01,2013-08-18 05:25:00,
2013-08-18 01:30:00,64.3,63.1,30.06,NE,55,0.0,0.0,96,0.00,,---,0.01,0.00,VWS V14.01,2013-08-18 05:30:00,
2013-08-18 01:35:00,64.2,63.0,30.05,NE,55,0.0,0.0,96,0.00,,---,0.01,0.00,VWS V14.01,2013-08-18 05:35:00,
2013-08-18 01:40:00,64.2,63.0,30.05,NE,55,0.0,0.0,96,0.00,,---,0.01,0.00,VWS V14.01,2013-08-18 05:40:00,
2013-08-18 01:45:00,64.1,62.9,30.06,NE,55,0.0,0.0,96,0.00,,---,0.01,0.00,VWS V14.01,2013-08-18 05:45:00,
2013-08-18 01:50:00,64.1,62.9,30.06,NE,55,0.0,0.0,96,0.00,,---,0.01,0.00,VWS V14.01,2013-08-18 05:50:00,
2013-08-18 01:55:00,64.1,62.9,30.06,NE,55,0.0,0.0,96,0.00,,---,0.01,0.00,VWS V14.01,2013-08-18 05:55:00,
2013-08-18 02:00:00,64.0,62.8,30.06,NE,55,0.0,0.0,96,0.00,,---,0.01,0.00,VWS V14.01,2013-08-18 06:00:00,
2013-08-18 02:05:00,64.0,62.8,30.06,NE,55,0.0,0.0,96,0.00,,---,0.01,0.00,VWS V14.01,2013-08-18 06:05:00,
2013-08-18 02:10:00,64.0,62.8,30.05,NE,55,0.0,0.0,96,0.00,,---,0.01,0.00,VWS V14.01,2013-08-18 06:10:00,
2013-08-18 02:15:00,63.9,62.7,30.05,NE,55,0.0,0.0,96,0.00,,---,0.01,0.00,VWS V14.01,2013-08-18 06:15:00,
2013-08-18 02:20:00,63.9,62.7,30.05,NE,55,0.0,0.0,96,0.00,,---,0.01,0.00,VWS V14.01,2013-08-18 06:20:00,
2013-08-18 02:25:00,63.9,62.7,30.05,NE,55,0.0,0.0,96,0.00,,---,0.01,0.00,VWS V14.01,2013-08-18 06:25:00,
2013-08-18 02:31:00,63.8,62.6,30.05,NE,55,0.0,0.0,96,0.00,,---,0.01,0.00,VWS V14.01,2013-08-18 06:31:00,
2013-08-18 02:36:00,63.8,62.9,30.05,NE,55,0.0,0.0,97,0.00,,---,0.01,0.00,VWS V14.01,2013-08-18 06:36:00,
2013-08-18 02:41:00,63.8,62.9,30.05,NE,55,0.0,0.0,97,0.00,,---,0.01,0.00,VWS V14.01,2013-08-18 06:41:00,
2013-08-18 02:46:00,63.7,62.8,30.05,NE,55,0.0,0.0,97,0.00,,---,0.01,0.00,VWS V14.01,2013-08-18 06:46:00,
2013-08-18 02:51:00,63.7,62.5,30.05,NE,55,0.0,0.0,96,0.00,,---,0.01,0.00,VWS V14.01,2013-08-18 06:51:00,
2013-08-18 02:56:00,63.7,62.8,30.05,NE,55,0.0,0.0,97,0.00,,---,0.01,0.00,VWS V14.01,2013-08-18 06:56:00,
2013-08-18 03:01:00,63.7,62.8,30.05,NE,55,0.0,0.0,97,0.00,,---,0.01,0.00,VWS V14.01,2013-08-18 07:01:00,
2013-08-18 03:06:00,63.6,62.7,30.05,NE,55,0.0,0.0,97,0.00,,---,0.01,0.00,VWS V14.01,2013-08-18 07:06:00,
2013-08-18 03:11:00,63.6,62.7,30.05,NE,55,0.0,0.0,97,0.00,,---,0.01,0.00,VWS V14.01,2013-08-18 07:11:00,
2013-08-18 03:16:00,63.6,62.7,30.05,NE,55,0.0,0.0,97,0.00,,---,0.01,0.00,VWS V14.01,2013-08-18 07:16:00,
2013-08-18 03:21:00,63.6,62.7,30.05,NE,55,0.0,0.0,97,0.00,,---,0.01,0.00,VWS V14.01,2013-08-18 07:21:00,
2013-08-18 03:26:00,63.6,62.7,30.05,NE,55,0.0,0.0,97,0.00,,---,0.01,0.00,VWS V14.01,2013-08-18 07:26:00,
2013-08-18 03:31:00,63.6,62.7,30.05,NE,55,0.0,0.0,97,0.00,,---,0.01,0.00,VWS V14.01,2013-08-18 07:31:00,
2013-08-18 03:36:00,63.6,62.7,30.05,NE,55,0.0,0.0,97,0.00,,---,0.01,0.00,VWS V14.01,2013-08-18 07:36:00,
2013-08-18 03:41:00,63.6,62.7,30.05,NE,55,0.0,0.0,97,0.00,,---,0.01,0.00,VWS V14.01,2013-08-18 07:41:00,
2013-08-18 03:46:00,63.5,62.6,30.05,NE,55,0.0,0.0,97,0.00,,---,0.01,0.00,VWS V14.01,2013-08-18 07:46:00,
2013-08-18 03:51:00,63.4,62.5,30.04,NE,55,0.0,0.0,97,0.00,,---,0.01,0.00,VWS V14.01,2013-08-18 07:51:00,
2013-08-18 03:56:00,63.4,62.5,30.05,NE,55,0.0,0.0,97,0.00,,---,0.01,0.00,VWS V14.01,2013-08-18 07:56:00,
2013-08-18 04:01:00,63.3,62.4,30.05,NE,55,0.0,0.0,97,0.00,,---,0.01,0.00,VWS V14.01,2013-08-18 08:01:00,
2013-08-18 04:07:00,63.3,62.4,30.04,NE,55,0.0,1.0,97,0.00,,---,0.01,0.00,VWS V14.01,2013-08-18 08:07:00,
2013-08-18 04:12:00,63.2,62.3,30.04,NE,55,0.0,0.0,97,0.00,,---,0.01,0.00,VWS V14.01,2013-08-18 08:12:00,
2013-08-18 04:17:00,63.2,62.3,30.04,NE,55,0.0,0.0,97,0.00,,---,0.01,0.00,VWS V14.01,2013-08-18 08:17:00,
2013-08-18 04:22:00,63.1,62.2,30.04,NE,55,0.0,2.0,97,0.00,,---,0.01,0.00,VWS V14.01,2013-08-18 08:22:00,
2013-08-18 04:27:00,63.1,62.2,30.04,NE,55,0.0,2.0,97,0.00,,---,0.01,0.00,VWS V14.01,2013-08-18 08:27:00,
2013-08-18 04:32:00,63.0,62.1,30.04,NE,55,0.0,0.0,97,0.00,,---,0.01,0.00,VWS V14.01,2013-08-18 08:32:00,
2013-08-18 04:37:00,63.0,62.1,30.03,NE,55,0.0,0.0,97,0.00,,---,0.01,0.00,VWS V14.01,2013-08-18 08:37:00,
2013-08-18 04:42:00,62.9,62.0,30.03,NE,55,0.0,0.0,97,0.00,,---,0.01,0.00,VWS V14.01,2013-08-18 08:42:00,
2013-08-18 04:47:00,62.8,61.9,30.04,NE,55,0.0,0.0,97,0.00,,---,0.01,0.00,VWS V14.01,2013-08-18 08:47:00,
2013-08-18 04:52:00,62.7,61.8,30.04,NE,55,0.0,0.0,97,0.00,,---,0.01,0.00,VWS V14.01,2013-08-18 08:52:00,
2013-08-18 04:57:00,62.7,61.8,30.04,NE,55,0.0,0.0,97,0.00,,---,0.01,0.00,VWS V14.01,2013-08-18 08:57:00,
2013-08-18 05:02:00,62.6,61.7,30.04,NE,55,0.0,0.0,97,0.00,,---,0.01,0.00,VWS V14.01,2013-08-18 09:02:00,
2013-08-18 05:07:00,62.6,61.7,30.04,NE,55,0.0,0.0,97,0.00,,---,0.01,0.00,VWS V14.01,2013-08-18 09:07:00,
2013-08-18 05:12:00,62.6,61.7,30.04,NE,55,0.0,0.0,97,0.00,,---,0.01,0.00,VWS V14.01,2013-08-18 09:12:00,
2013-08-18 05:17:00,62.7,61.8,30.04,NE,55,0.0,0.0,97,0.00,,---,0.01,0.00,VWS V14.01,2013-08-18 09:17:00,
2013-08-18 05:22:00,62.7,61.8,30.04,NE,55,0.0,1.0,97,0.00,,---,0.01,0.00,VWS V14.01,2013-08-18 09:22:00,
2013-08-18 05:27:00,62.7,61.8,30.05,NE,55,0.0,1.0,97,0.00,,---,0.01,0.00,VWS V14.01,2013-08-18 09:27:00,
2013-08-18 05:32:00,62.7,61.8,30.05,NE,55,0.0,0.0,97,0.00,,---,0.01,0.00,VWS V14.01,2013-08-18 09:32:00,
2013-08-18 05:37:00,62.7,61.8,30.06,NE,55,0.0,0.0,97,0.00,,---,0.01,0.00,VWS V14.01,2013-08-18 09:37:00,
2013-08-18 05:42:00,62.7,61.8,30.05,NE,55,0.0,0.0,97,0.00,,---,0.01,0.00,VWS V14.01,2013-08-18 09:42:00,
2013-08-18 05:48:00,62.8,62.2,30.06,NE,55,0.0,0.0,98,0.00,,---,0.01,0.00,VWS V14.01,2013-08-18 09:48:00,
2013-08-18 05:53:00,62.8,62.2,30.06,NE,55,0.0,0.0,98,0.00,,---,0.01,0.00,VWS V14.01,2013-08-18 09:53:00,
2013-08-18 05:58:00,62.8,62.2,30.06,NE,55,0.0,0.0,98,0.00,,---,0.01,0.00,VWS V14.01,2013-08-18 09:58:00,
2013-08-18 06:03:00,62.9,62.3,30.06,NE,55,0.0,0.0,98,0.00,,---,0.01,0.00,VWS V14.01,2013-08-18 10:03:00,
2013-08-18 06:08:00,62.9,62.3,30.06,NE,55,0.0,0.0,98,0.00,,---,0.01,0.00,VWS V14.01,2013-08-18 10:08:00,
2013-08-18 06:13:00,62.9,62.3,30.06,NE,55,0.0,0.0,98,0.00,,---,0.01,0.00,VWS V14.01,2013-08-18 10:13:00,
2013-08-18 06:18:00,62.9,62.3,30.06,NE,55,0.0,0.0,98,0.00,,---,0.01,0.00,VWS V14.01,2013-08-18 10:18:00,
2013-08-18 06:23:00,62.9,62.3,30.06,NE,55,0.0,0.0,98,0.00,,---,0.01,0.00,VWS V14.01,2013-08-18 10:23:00,
2013-08-18 06:28:00,62.9,62.3,30.07,NE,55,0.0,0.0,98,0.00,,---,0.01,0.00,VWS V14.01,2013-08-18 10:28:00,
2013-08-18 06:33:00,62.9,62.3,30.07,NE,55,0.0,0.0,98,0.00,,---,0.01,0.00,VWS V14.01,2013-08-18 10:33:00,
2013-08-18 06:38:00,62.9,62.3,30.07,NE,55,0.0,0.0,98,0.00,,---,0.01,0.00,VWS V14.01,2013-08-18 10:38:00,
2013-08-18 06:43:00,62.9,62.3,30.07,NE,55,0.0,0.0,98,0.00,,---,0.01,0.00,VWS V14.01,2013-08-18 10:43:00,
2013-08-18 06:48:00,63.0,62.4,30.07,NE,55,0.0,0.0,98,0.00,,---,0.01,0.00,VWS V14.01,2013-08-18 10:48:00,
2013-08-18 06:54:00,63.0,62.4,30.08,NE,55,0.0,0.0,98,0.00,,---,0.01,0.00,VWS V14.01,2013-08-18 10:54:00,
2013-08-18 06:59:00,63.0,62.4,30.08,NE,55,0.0,0.0,98,0.00,,---,0.01,0.00,VWS V14.01,2013-08-18 10:59:00,
2013-08-18 07:04:00,63.0,62.4,30.08,NE,55,0.0,0.0,98,0.00,,---,0.01,5.00,VWS V14.01,2013-08-18 11:04:00,
2013-08-18 07:09:00,63.0,62.4,30.08,NE,55,0.0,0.0,98,0.00,,---,0.01,9.00,VWS V14.01,2013-08-18 11:09:00,
2013-08-18 07:14:00,63.0,62.4,30.08,NE,55,0.0,0.0,98,0.00,,---,0.01,12.00,VWS V14.01,2013-08-18 11:14:00,
2013-08-18 07:19:00,63.1,62.5,30.07,NE,55,0.0,0.0,98,0.00,,---,0.01,16.00,VWS V14.01,2013-08-18 11:19:00,
2013-08-18 07:24:00,63.2,62.6,30.07,NE,55,0.0,0.0,98,0.00,,---,0.01,19.00,VWS V14.01,2013-08-18 11:24:00,
2013-08-18 07:29:00,63.3,62.7,30.07,NE,55,0.0,0.0,98,0.00,,---,0.01,18.00,VWS V14.01,2013-08-18 11:29:00,
2013-08-18 07:34:00,63.3,62.7,30.08,NE,55,0.0,0.0,98,0.00,,---,0.01,25.00,VWS V14.01,2013-08-18 11:34:00,
2013-08-18 07:39:00,63.3,62.7,30.08,NE,55,0.0,0.0,98,0.00,,---,0.01,49.00,VWS V14.01,2013-08-18 11:39:00,
2013-08-18 07:44:00,63.4,62.8,30.08,NE,55,0.0,0.0,98,0.00,,---,0.01,54.00,VWS V14.01,2013-08-18 11:44:00,
2013-08-18 07:49:00,63.6,63.0,30.08,NE,55,0.0,0.0,98,0.00,,---,0.01,49.00,VWS V14.01,2013-08-18 11:49:00,
2013-08-18 07:54:00,63.8,63.2,30.08,NE,55,0.0,0.0,98,0.00,,---,0.01,67.00,VWS V14.01,2013-08-18 11:54:00,
2013-08-18 07:59:00,64.0,63.4,30.08,NE,55,0.0,0.0,98,0.00,,---,0.01,86.00,VWS V14.01,2013-08-18 11:59:00,
2013-08-18 08:04:00,64.0,63.4,30.08,NE,55,0.0,0.0,98,0.00,,---,0.01,81.00,VWS V14.01,2013-08-18 12:04:00,
2013-08-18 08:09:00,64.0,63.4,30.08,NE,53,0.0,0.0,98,0.00,,---,0.01,56.00,VWS V14.01,2013-08-18 12:09:00,
2013-08-18 08:14:00,64.1,63.5,30.08,NE,55,0.0,0.0,98,0.00,,---,0.01,39.00,VWS V14.01,2013-08-18 12:14:00,
2013-08-18 08:19:00,64.3,63.7,30.08,NE,55,0.0,0.0,98,0.00,,---,0.01,62.00,VWS V14.01,2013-08-18 12:19:00,
2013-08-18 08:24:00,64.4,63.8,30.08,NE,55,0.0,0.0,98,0.00,,---,0.01,77.00,VWS V14.01,2013-08-18 12:24:00,
2013-08-18 08:30:00,64.4,63.8,30.08,NE,55,0.0,0.0,98,0.00,,---,0.01,90.00,VWS V14.01,2013-08-18 12:30:00,
2013-08-18 08:35:00,64.6,64.0,30.09,NE,55,0.0,0.0,98,0.00,,---,0.01,113.00,VWS V14.01,2013-08-18 12:35:00,
2013-08-18 08:40:00,64.7,64.1,30.09,NE,55,0.0,0.0,98,0.00,,---,0.01,163.00,VWS V14.01,2013-08-18 12:40:00,
2013-08-18 08:45:00,64.8,64.2,30.10,NE,55,0.0,0.0,98,0.00,,---,0.01,172.00,VWS V14.01,2013-08-18 12:45:00,
2013-08-18 08:50:00,64.9,64.3,30.09,NE,55,0.0,0.0,98,0.00,,---,0.01,178.00,VWS V14.01,2013-08-18 12:50:00,
2013-08-18 08:55:00,65.4,64.8,30.10,NE,55,0.0,0.0,98,0.00,,---,0.01,174.00,VWS V14.01,2013-08-18 12:55:00,
2013-08-18 09:00:00,65.7,65.1,30.09,NE,55,0.0,0.0,98,0.00,,---,0.01,234.00,VWS V14.01,2013-08-18 13:00:00,
2013-08-18 09:05:00,66.2,65.6,30.09,NE,55,0.0,0.0,98,0.00,,---,0.01,248.00,VWS V14.01,2013-08-18 13:05:00,
2013-08-18 09:10:00,66.6,66.0,30.09,NE,55,0.0,1.0,98,0.00,,---,0.01,237.00,VWS V14.01,2013-08-18 13:10:00,
2013-08-18 09:15:00,66.9,66.3,30.09,NE,55,0.0,1.0,98,0.00,,---,0.01,246.00,VWS V14.01,2013-08-18 13:15:00,
2013-08-18 09:20:00,67.3,66.4,30.09,NE,55,0.0,0.0,97,0.00,,---,0.01,241.00,VWS V14.01,2013-08-18 13:20:00,
2013-08-18 09:25:00,67.5,66.3,30.09,NE,55,0.0,0.0,96,0.00,,---,0.01,200.00,VWS V14.01,2013-08-18 13:25:00,
2013-08-18 09:30:00,67.8,66.6,30.09,NE,55,0.0,0.0,96,0.00,,---,0.01,220.00,VWS V14.01,2013-08-18 13:30:00,
2013-08-18 09:35:00,68.0,66.5,30.09,NE,55,0.0,1.0,95,0.00,,---,0.01,214.00,VWS V14.01,2013-08-18 13:35:00,
2013-08-18 09:40:00,68.3,66.8,30.09,NE,55,0.0,0.0,95,0.00,,---,0.01,236.00,VWS V14.01,2013-08-18 13:40:00,
2013-08-18 09:45:00,68.5,66.4,30.09,NE,55,0.0,1.0,93,0.00,,---,0.01,234.00,VWS V14.01,2013-08-18 13:45:00,
2013-08-18 09:50:00,68.7,66.6,30.09,NE,55,0.0,1.0,93,0.00,,---,0.01,269.00,VWS V14.01,2013-08-18 13:50:00,
2013-08-18 09:55:00,68.8,66.4,30.10,NE,55,0.0,1.0,92,0.00,,---,0.01,218.00,VWS V14.01,2013-08-18 13:55:00,
2013-08-18 10:00:00,68.8,66.1,30.10,NE,55,0.0,1.0,91,0.00,,---,0.01,190.00,VWS V14.01,2013-08-18 14:00:00,
2013-08-18 10:06:00,69.0,66.3,30.10,NE,53,0.0,1.0,91,0.00,,---,0.01,160.00,VWS V14.01,2013-08-18 14:06:00,
2013-08-18 10:11:00,69.1,66.4,30.10,NE,55,0.0,0.0,91,0.00,,---,0.01,174.00,VWS V14.01,2013-08-18 14:11:00,
2013-08-18 10:16:00,69.3,66.2,30.10,NE,55,0.0,1.0,90,0.00,,---,0.01,179.00,VWS V14.01,2013-08-18 14:16:00,
2013-08-18 10:21:00,69.4,66.3,30.11,NE,55,0.0,0.0,90,0.00,,---,0.01,165.00,VWS V14.01,2013-08-18 14:21:00,
2013-08-18 10:26:00,69.7,67.0,30.11,NE,55,0.0,1.0,91,0.00,,---,0.01,264.00,VWS V14.01,2013-08-18 14:26:00,
2013-08-18 10:31:00,70.0,66.9,30.11,NE,55,0.0,0.0,90,0.00,,---,0.01,313.00,VWS V14.01,2013-08-18 14:31:00,
2013-08-18 10:36:00,70.3,66.9,30.11,NE,55,0.0,1.0,89,0.00,,---,0.01,304.00,VWS V14.01,2013-08-18 14:36:00,
2013-08-18 10:41:00,70.6,67.5,30.11,NE,55,0.0,1.0,90,0.00,,---,0.01,239.00,VWS V14.01,2013-08-18 14:41:00,
2013-08-18 10:46:00,70.8,67.1,30.11,NE,55,0.0,1.0,88,0.00,,---,0.01,192.00,VWS V14.01,2013-08-18 14:46:00,
2013-08-18 10:51:00,70.7,67.0,30.10,NE,55,0.0,2.0,88,0.00,,---,0.01,237.00,VWS V14.01,2013-08-18 14:51:00,
2013-08-18 10:56:00,70.7,67.0,30.11,NE,55,1.0,2.0,88,0.00,,---,0.01,264.00,VWS V14.01,2013-08-18 14:56:00,
2013-08-18 11:01:00,71.0,67.6,30.11,NE,55,0.0,1.0,89,0.00,,---,0.01,302.00,VWS V14.01,2013-08-18 15:01:00,
2013-08-18 11:06:00,71.2,67.1,30.11,NE,55,0.0,1.0,87,0.00,,---,0.01,345.00,VWS V14.01,2013-08-18 15:06:00,
2013-08-18 11:11:00,71.3,67.6,30.11,NE,55,0.0,1.0,88,0.00,,---,0.01,411.00,VWS V14.01,2013-08-18 15:11:00,
2013-08-18 11:16:00,71.7,68.0,30.11,NE,55,0.0,1.0,88,0.00,,---,0.01,380.00,VWS V14.01,2013-08-18 15:16:00,
2013-08-18 11:21:00,72.1,67.7,30.11,NE,55,0.0,1.0,86,0.00,,---,0.01,367.00,VWS V14.01,2013-08-18 15:21:00,
2013-08-18 11:26:00,72.1,67.0,30.11,NE,55,2.0,3.0,84,0.00,,---,0.01,369.00,VWS V14.01,2013-08-18 15:26:00,
2013-08-18 11:31:00,72.0,67.6,30.11,NE,55,0.0,1.0,86,0.00,,---,0.01,357.00,VWS V14.01,2013-08-18 15:31:00,
2013-08-18 11:36:00,72.3,67.9,30.11,ENE,59,0.0,1.0,86,0.00,,---,0.01,360.00,VWS V14.01,2013-08-18 15:36:00,
2013-08-18 11:41:00,72.8,68.7,30.11,ENE,60,0.0,1.0,87,0.00,,---,0.01,410.00,VWS V14.01,2013-08-18 15:41:00,
2013-08-18 11:47:00,73.3,68.5,30.11,ENE,58,2.0,2.0,85,0.00,,---,0.01,475.00,VWS V14.01,2013-08-18 15:47:00,
2013-08-18 11:52:00,73.4,67.9,30.11,NE,41,0.0,2.0,83,0.00,,---,0.01,381.00,VWS V14.01,2013-08-18 15:52:00,
2013-08-18 11:57:00,73.7,68.9,30.11,NE,41,0.0,2.0,85,0.00,,---,0.01,353.00,VWS V14.01,2013-08-18 15:57:00,
2013-08-18 12:02:00,73.7,67.9,30.11,NE,41,0.0,0.0,82,0.00,,---,0.01,417.00,VWS V14.01,2013-08-18 16:02:00,
2013-08-18 12:07:00,74.0,69.2,30.11,NE,40,0.0,1.0,85,0.00,,---,0.01,466.00,VWS V14.01,2013-08-18 16:07:00,
2013-08-18 12:12:00,74.3,68.8,30.11,NE,40,0.0,1.0,83,0.00,,---,0.01,401.00,VWS V14.01,2013-08-18 16:12:00,
2013-08-18 12:17:00,74.5,68.7,30.11,NE,41,0.0,1.0,82,0.00,,---,0.01,411.00,VWS V14.01,2013-08-18 16:17:00,
2013-08-18 12:22:00,74.4,68.2,30.11,NE,40,0.0,1.0,81,0.00,,---,0.01,369.00,VWS V14.01,2013-08-18 16:22:00,
2013-08-18 12:27:00,74.5,68.7,30.11,NE,41,0.0,1.0,82,0.00,,---,0.01,248.00,VWS V14.01,2013-08-18 16:27:00,
2013-08-18 12:32:00,74.6,69.1,30.11,NE,40,0.0,1.0,83,0.00,,---,0.01,206.00,VWS V14.01,2013-08-18 16:32:00,
2013-08-18 12:37:00,74.4,68.6,30.11,NW,320,0.0,2.0,82,0.00,,---,0.01,183.00,VWS V14.01,2013-08-18 16:37:00,
2013-08-18 12:42:00,74.3,69.2,30.10,NW,306,0.0,1.0,84,0.00,,---,0.01,179.00,VWS V14.01,2013-08-18 16:42:00,
2013-08-18 12:47:00,74.1,69.0,30.10,WNW,300,0.0,1.0,84,0.00,,---,0.01,237.00,VWS V14.01,2013-08-18 16:47:00,
2013-08-18 12:52:00,73.7,68.6,30.10,WNW,300,0.0,1.0,84,0.00,,---,0.01,213.00,VWS V14.01,2013-08-18 16:52:00,
2013-08-18 12:57:00,73.3,68.5,30.10,WNW,299,0.0,1.0,85,0.00,,---,0.01,179.00,VWS V14.01,2013-08-18 16:57:00,
2013-08-18 13:02:00,73.0,68.6,30.10,West,263,0.0,2.0,86,0.00,,---,0.01,174.00,VWS V14.01,2013-08-18 17:02:00,
2013-08-18 13:07:00,72.7,68.6,30.10,SW,227,0.0,3.0,87,0.00,,---,0.01,320.00,VWS V14.01,2013-08-18 17:07:00,
2013-08-18 13:13:00,72.6,68.8,30.09,SSW,192,0.0,1.0,88,0.00,,---,0.01,489.00,VWS V14.01,2013-08-18 17:13:00,
2013-08-18 13:18:00,72.8,69.0,30.10,WSW,238,0.0,1.0,88,0.00,,---,0.01,482.00,VWS V14.01,2013-08-18 17:18:00,
2013-08-18 13:23:00,73.1,68.3,30.10,West,274,0.0,3.0,85,0.00,,---,0.01,480.00,VWS V14.01,2013-08-18 17:23:00,
2013-08-18 13:28:00,73.4,67.9,30.10,WSW,245,0.0,3.0,83,0.00,,---,0.01,492.00,VWS V14.01,2013-08-18 17:28:00,
2013-08-18 13:33:00,73.6,67.8,30.09,WSW,245,0.0,2.0,82,0.00,,---,0.01,517.00,VWS V14.01,2013-08-18 17:33:00,
2013-08-18 13:38:00,74.0,68.2,30.09,WSW,245,0.0,2.0,82,0.00,,---,0.01,578.00,VWS V14.01,2013-08-18 17:38:00,
2013-08-18 13:43:00,74.5,69.0,30.09,WSW,245,0.0,2.0,83,0.00,,---,0.01,686.00,VWS V14.01,2013-08-18 17:43:00,
2013-08-18 13:48:00,75.1,68.2,30.09,WSW,248,0.0,3.0,79,0.00,,---,0.01,902.00,VWS V14.01,2013-08-18 17:48:00,
2013-08-18 13:53:00,75.8,69.2,30.08,WSW,248,0.0,1.0,80,0.00,,---,0.01,1013.00,VWS V14.01,2013-08-18 17:53:00,
2013-08-18 13:58:00,76.5,69.9,30.08,WSW,248,1.0,2.0,80,0.00,,---,0.01,1048.00,VWS V14.01,2013-08-18 17:58:00,
2013-08-18 14:03:00,77.2,69.1,30.08,WSW,252,0.0,4.0,76,0.00,,---,0.01,1037.00,VWS V14.01,2013-08-18 18:03:00,
2013-08-18 14:08:00,77.3,68.4,30.08,WSW,240,0.0,0.0,74,0.00,,---,0.01,687.00,VWS V14.01,2013-08-18 18:08:00,
2013-08-18 14:13:00,77.3,68.8,30.08,SW,232,3.0,6.0,75,0.00,,---,0.01,812.00,VWS V14.01,2013-08-18 18:13:00,
2013-08-18 14:18:00,77.3,68.0,30.08,WSW,245,1.0,4.0,73,0.00,,---,0.01,747.00,VWS V14.01,2013-08-18 18:18:00,
2013-08-18 14:23:00,77.4,68.9,30.07,WNW,288,0.0,4.0,75,0.00,,---,0.01,1018.00,VWS V14.01,2013-08-18 18:23:00,
2013-08-18 14:28:00,77.9,67.8,30.07,WNW,297,0.0,3.0,71,0.00,,---,0.01,1107.00,VWS V14.01,2013-08-18 18:28:00,
2013-08-18 14:33:00,78.3,67.3,30.07,WSW,254,2.0,9.0,69,0.00,,---,0.01,1088.00,VWS V14.01,2013-08-18 18:33:00,
2013-08-18 14:38:00,78.6,67.6,30.07,SW,225,0.0,1.0,69,0.00,,---,0.01,1011.00,VWS V14.01,2013-08-18 18:38:00,
2013-08-18 14:44:00,78.6,67.2,30.07,SSW,211,3.0,9.0,68,0.00,,---,0.01,1116.00,VWS V14.01,2013-08-18 18:44:00,
2013-08-18 14:49:00,78.7,66.8,30.07,NNW,330,7.0,12.0,67,0.00,,---,0.01,420.00,VWS V14.01,2013-08-18 18:49:00,
2013-08-18 14:54:00,79.0,68.0,30.07,WSW,244,3.0,12.0,69,0.00,,---,0.01,420.00,VWS V14.01,2013-08-18 18:54:00,
2013-08-18 14:59:00,79.1,68.9,30.07,WSW,242,6.0,10.0,71,0.00,,---,0.01,998.00,VWS V14.01,2013-08-18 18:59:00,
2013-08-18 15:04:00,79.1,68.5,30.06,SW,228,2.0,10.0,70,0.00,,---,0.01,944.00,VWS V14.01,2013-08-18 19:04:00,
2013-08-18 15:09:00,78.9,67.4,30.06,WSW,238,0.0,5.0,68,0.00,,---,0.01,336.00,VWS V14.01,2013-08-18 19:09:00,
2013-08-18 15:14:00,77.8,67.2,30.06,SW,226,1.0,11.0,70,0.00,,---,0.01,362.00,VWS V14.01,2013-08-18 19:14:00,
2013-08-18 15:19:00,77.0,67.7,30.06,SW,232,2.0,6.0,73,0.00,,---,0.01,343.00,VWS V14.01,2013-08-18 19:19:00,
2013-08-18 15:24:00,76.7,67.8,30.06,SW,234,0.0,6.0,74,0.00,,---,0.01,200.00,VWS V14.01,2013-08-18 19:24:00,
2013-08-18 15:29:00,76.5,68.4,30.06,SW,234,0.0,2.0,76,0.00,,---,0.01,142.00,VWS V14.01,2013-08-18 19:29:00,
2013-08-18 15:34:00,76.1,68.0,30.06,South,181,0.0,3.0,76,0.00,,---,0.01,353.00,VWS V14.01,2013-08-18 19:34:00,
2013-08-18 15:39:00,76.6,69.2,30.06,South,181,0.0,2.0,78,0.00,,---,0.01,854.00,VWS V14.01,2013-08-18 19:39:00,
2013-08-18 15:44:00,77.6,69.4,30.05,SW,215,1.0,7.0,76,0.00,,---,0.01,863.00,VWS V14.01,2013-08-18 19:44:00,
2013-08-18 15:49:00,78.3,69.7,30.05,NNE,26,1.0,2.0,75,0.00,,---,0.01,510.00,VWS V14.01,2013-08-18 19:49:00,
2013-08-18 15:54:00,78.9,69.5,30.05,NW,311,0.0,2.0,73,0.00,,---,0.01,492.00,VWS V14.01,2013-08-18 19:54:00,
2013-08-18 15:59:00,79.6,69.4,30.05,SW,231,0.0,3.0,71,0.00,,---,0.01,947.00,VWS V14.01,2013-08-18 19:59:00,
2013-08-18 16:04:00,79.9,68.8,30.05,SW,232,0.0,5.0,69,0.00,,---,0.01,868.00,VWS V14.01,2013-08-18 20:04:00,
2013-08-18 16:09:00,79.6,68.5,30.05,WSW,238,0.0,2.0,69,0.00,,---,0.01,413.00,VWS V14.01,2013-08-18 20:09:00,
2013-08-18 16:14:00,79.4,68.8,30.05,WSW,238,1.0,3.0,70,0.00,,---,0.01,573.00,VWS V14.01,2013-08-18 20:14:00,
2013-08-18 16:20:00,79.4,69.6,30.05,WSW,238,0.0,1.0,72,0.00,,---,0.01,334.00,VWS V14.01,2013-08-18 20:20:00,
2013-08-18 16:25:00,79.7,69.9,30.05,West,264,1.0,3.0,72,0.00,,---,0.01,615.00,VWS V14.01,2013-08-18 20:25:00,
2013-08-18 16:30:00,80.0,68.5,30.05,WSW,237,2.0,6.0,68,0.00,,---,0.01,925.00,VWS V14.01,2013-08-18 20:30:00,
2013-08-18 16:35:00,80.0,68.9,30.04,SW,235,0.0,6.0,69,0.00,,---,0.01,526.00,VWS V14.01,2013-08-18 20:35:00,
2013-08-18 16:40:00,79.6,68.1,30.04,SW,234,4.0,4.0,68,0.00,,---,0.01,663.00,VWS V14.01,2013-08-18 20:40:00,
2013-08-18 16:45:00,79.4,69.2,30.04,SW,234,0.0,5.0,71,0.00,,---,0.01,663.00,VWS V14.01,2013-08-18 20:45:00,
2013-08-18 16:50:00,79.4,67.9,30.04,WSW,238,0.0,4.0,68,0.00,,---,0.01,211.00,VWS V14.01,2013-08-18 20:50:00,
2013-08-18 16:55:00,78.9,68.3,30.04,WSW,238,0.0,4.0,70,0.00,,---,0.01,188.00,VWS V14.01,2013-08-18 20:55:00,
2013-08-18 17:00:00,78.5,68.3,30.04,WSW,238,0.0,2.0,71,0.00,,---,0.01,169.00,VWS V14.01,2013-08-18 21:00:00,
2013-08-18 17:05:00,78.0,68.2,30.04,WSW,238,5.0,5.0,72,0.00,,---,0.01,190.00,VWS V14.01,2013-08-18 21:05:00,
2013-08-18 17:10:00,77.4,68.1,30.04,WSW,238,0.0,2.0,73,0.00,,---,0.01,244.00,VWS V14.01,2013-08-18 21:10:00,
2013-08-18 17:15:00,77.1,68.2,30.04,WSW,238,0.0,4.0,74,0.00,,---,0.01,232.00,VWS V14.01,2013-08-18 21:15:00,
2013-08-18 17:20:00,77.0,68.1,30.04,WSW,238,1.0,2.0,74,0.00,,---,0.01,178.00,VWS V14.01,2013-08-18 21:20:00,
2013-08-18 17:25:00,76.7,68.2,30.04,WSW,238,0.0,4.0,75,0.00,,---,0.01,123.00,VWS V14.01,2013-08-18 21:25:00,
2013-08-18 17:30:00,76.4,67.9,30.04,WSW,238,0.0,3.0,75,0.00,,---,0.01,100.00,VWS V14.01,2013-08-18 21:30:00,
2013-08-18 17:35:00,75.9,67.8,30.04,SW,225,0.0,4.0,76,0.00,,---,0.01,79.00,VWS V14.01,2013-08-18 21:35:00,
2013-08-18 17:40:00,75.4,67.3,30.05,SW,225,0.0,4.0,76,0.00,,---,0.01,60.00,VWS V14.01,2013-08-18 21:40:00,
2013-08-18 17:45:00,75.2,68.2,30.05,SW,225,0.0,4.0,79,0.00,,---,0.01,46.00,VWS V14.01,2013-08-18 21:45:00,
2013-08-18 17:50:00,74.9,68.3,30.05,WNW,301,0.0,1.0,80,0.00,,---,0.01,35.00,VWS V14.01,2013-08-18 21:50:00,
2013-08-18 17:56:00,74.5,68.7,30.05,WNW,301,0.0,1.0,82,0.00,,---,0.01,33.00,VWS V14.01,2013-08-18 21:56:00,
2013-08-18 18:01:00,73.5,67.7,30.06,SSE,160,0.0,3.0,82,0.00,,---,0.01,51.00,VWS V14.01,2013-08-18 22:01:00,
2013-08-18 18:06:00,72.3,67.5,30.06,South,174,0.0,3.0,85,0.00,,---,0.01,60.00,VWS V14.01,2013-08-18 22:06:00,
2013-08-18 18:11:00,71.4,67.3,30.05,SE,125,0.0,3.0,87,0.00,,---,0.01,90.00,VWS V14.01,2013-08-18 22:11:00,
2013-08-18 18:16:00,70.8,67.4,30.05,SSE,155,0.0,3.0,89,0.00,,---,0.01,113.00,VWS V14.01,2013-08-18 22:16:00,
2013-08-18 18:21:00,70.5,67.8,30.05,SSE,155,0.0,0.0,91,0.00,,---,0.01,120.00,VWS V14.01,2013-08-18 22:21:00,
2013-08-18 18:26:00,70.3,67.6,30.05,SSE,155,0.0,1.0,91,0.00,,---,0.01,123.00,VWS V14.01,2013-08-18 22:26:00,
2013-08-18 18:31:00,70.2,67.8,30.05,SSE,155,0.0,0.0,92,0.00,,---,0.01,151.00,VWS V14.01,2013-08-18 22:31:00,
2013-08-18 18:36:00,70.1,67.7,30.05,SSE,157,0.0,2.0,92,0.00,,---,0.01,139.00,VWS V14.01,2013-08-18 22:36:00,
2013-08-18 18:41:00,69.9,67.5,30.05,SSE,157,0.0,1.0,92,0.00,,---,0.01,107.00,VWS V14.01,2013-08-18 22:41:00,
2013-08-18 18:46:00,69.8,67.4,30.05,SSE,157,0.0,1.0,92,0.00,,---,0.01,46.00,VWS V14.01,2013-08-18 22:46:00,
2013-08-18 18:51:00,69.7,67.3,30.05,SSE,157,0.0,0.0,92,0.00,,---,0.01,28.00,VWS V14.01,2013-08-18 22:51:00,
2013-08-18 18:56:00,69.5,67.1,30.05,SSE,157,0.0,0.0,92,0.00,,---,0.01,35.00,VWS V14.01,2013-08-18 22:56:00,
2013-08-18 19:01:00,69.4,67.0,30.05,SSE,158,0.0,1.0,92,0.00,,---,0.01,39.00,VWS V14.01,2013-08-18 23:01:00,
2013-08-18 19:06:00,69.2,67.1,30.05,SSE,157,0.0,2.0,93,0.00,,---,0.01,33.00,VWS V14.01,2013-08-18 23:06:00,
2013-08-18 19:11:00,69.0,66.6,30.05,SSE,159,0.0,1.0,92,0.00,,---,0.01,39.00,VWS V14.01,2013-08-18 23:11:00,
2013-08-18 19:16:00,68.9,66.8,30.05,SSE,159,0.0,1.0,93,0.00,,---,0.01,32.00,VWS V14.01,2013-08-18 23:16:00,
2013-08-18 19:21:00,68.8,66.7,30.05,SSE,159,0.0,0.0,93,0.00,,---,0.01,32.00,VWS V14.01,2013-08-18 23:21:00,
2013-08-18 19:27:00,68.8,66.7,30.05,SSE,159,0.0,1.0,93,0.00,,---,0.01,33.00,VWS V14.01,2013-08-18 23:27:00,
2013-08-18 19:32:00,68.7,66.9,30.05,SSE,159,0.0,0.0,94,0.00,,---,0.01,23.00,VWS V14.01,2013-08-18 23:32:00,
2013-08-18 19:37:00,68.6,66.8,30.06,SSE,159,0.0,1.0,94,0.00,,---,0.01,19.00,VWS V14.01,2013-08-18 23:37:00,
2013-08-18 19:42:00,68.5,66.4,30.06,SSE,159,1.0,1.0,93,0.00,,---,0.01,14.00,VWS V14.01,2013-08-18 23:42:00,
2013-08-18 19:47:00,68.5,66.7,30.07,SSE,159,0.0,1.0,94,0.00,,---,0.01,12.00,VWS V14.01,2013-08-18 23:47:00,
2013-08-18 19:52:00,68.4,66.6,30.07,SSE,159,0.0,1.0,94,0.00,,---,0.01,9.00,VWS V14.01,2013-08-18 23:52:00,
2013-08-18 19:57:00,68.4,66.6,30.07,SSE,159,0.0,1.0,94,0.00,,---,0.01,5.00,VWS V14.01,2013-08-18 23:57:00,
2013-08-18 20:02:00,68.4,66.6,30.07,WNW,301,2.0,2.0,94,0.00,,---,0.01,0.00,VWS V14.01,2013-08-19 00:02:00,
2013-08-18 20:07:00,68.3,66.5,30.07,WSW,248,0.0,2.0,94,0.00,,---,0.01,0.00,VWS V14.01,2013-08-19 00:07:00,
2013-08-18 20:12:00,68.2,66.7,30.07,West,264,0.0,4.0,95,0.00,,---,0.01,0.00,VWS V14.01,2013-08-19 00:12:00,
2013-08-18 20:17:00,68.2,66.7,30.08,West,263,0.0,4.0,95,0.00,,---,0.01,0.00,VWS V14.01,2013-08-19 00:17:00,
2013-08-18 20:22:00,68.1,66.6,30.08,West,278,2.0,3.0,95,0.00,,---,0.01,0.00,VWS V14.01,2013-08-19 00:22:00,
2013-08-18 20:27:00,68.1,66.6,30.08,West,278,1.0,3.0,95,0.00,,---,0.01,0.00,VWS V14.01,2013-08-19 00:27:00,
2013-08-18 20:32:00,68.0,66.5,30.08,West,278,0.0,2.0,95,0.00,,---,0.01,0.00,VWS V14.01,2013-08-19 00:32:00,
2013-08-18 20:37:00,68.0,66.5,30.08,West,278,0.0,2.0,95,0.00,,---,0.01,0.00,VWS V14.01,2013-08-19 00:37:00,
2013-08-18 20:42:00,67.9,66.4,30.08,West,278,0.0,1.0,95,0.00,,---,0.01,0.00,VWS V14.01,2013-08-19 00:42:00,
2013-08-18 20:48:00,67.8,66.3,30.08,West,278,0.0,2.0,95,0.00,,---,0.01,0.00,VWS V14.01,2013-08-19 00:48:00,
2013-08-18 20:53:00,67.7,66.2,30.08,West,278,0.0,0.0,95,0.00,,---,0.01,0.00,VWS V14.01,2013-08-19 00:53:00,
2013-08-18 20:58:00,67.5,66.0,30.08,West,279,0.0,2.0,95,0.00,,---,0.01,0.00,VWS V14.01,2013-08-19 00:58:00,
2013-08-18 21:03:00,67.3,65.8,30.08,West,279,0.0,1.0,95,0.00,,---,0.01,0.00,VWS V14.01,2013-08-19 01:03:00,
2013-08-18 21:08:00,67.2,65.7,30.08,West,279,0.0,1.0,95,0.00,,---,0.01,0.00,VWS V14.01,2013-08-19 01:08:00,
2013-08-18 21:13:00,67.1,65.6,30.08,West,279,0.0,1.0,95,0.00,,---,0.01,0.00,VWS V14.01,2013-08-19 01:13:00,
2013-08-18 21:18:00,66.9,65.4,30.08,West,279,0.0,3.0,95,0.00,,---,0.01,0.00,VWS V14.01,2013-08-19 01:18:00,
2013-08-18 21:23:00,66.8,65.3,30.08,West,279,0.0,0.0,95,0.00,,---,0.01,0.00,VWS V14.01,2013-08-19 01:23:00,
2013-08-18 21:28:00,66.7,65.2,30.09,West,279,0.0,0.0,95,0.00,,---,0.01,0.00,VWS V14.01,2013-08-19 01:28:00,
2013-08-18 21:33:00,66.7,65.2,30.09,West,279,0.0,0.0,95,0.00,,---,0.01,0.00,VWS V14.01,2013-08-19 01:33:00,
2013-08-18 21:38:00,66.6,65.4,30.10,West,279,0.0,1.0,96,0.00,,---,0.01,0.00,VWS V14.01,2013-08-19 01:38:00,
2013-08-18 21:43:00,66.5,65.3,30.10,West,279,0.0,1.0,96,0.00,,---,0.01,0.00,VWS V14.01,2013-08-19 01:43:00,
2013-08-18 21:48:00,66.4,65.2,30.10,West,279,0.0,0.0,96,0.00,,---,0.01,0.00,VWS V14.01,2013-08-19 01:48:00,
2013-08-18 21:54:00,66.3,65.1,30.10,West,279,0.0,0.0,96,0.00,,---,0.01,0.00,VWS V14.01,2013-08-19 01:54:00,
2013-08-18 21:59:00,66.2,65.0,30.10,West,279,0.0,0.0,96,0.00,,---,0.01,0.00,VWS V14.01,2013-08-19 01:59:00,
2013-08-18 22:04:00,66.1,64.9,30.10,West,279,0.0,0.0,96,0.00,,---,0.01,0.00,VWS V14.01,2013-08-19 02:04:00,
2013-08-18 22:09:00,66.1,64.9,30.10,West,279,0.0,0.0,96,0.00,,---,0.01,0.00,VWS V14.01,2013-08-19 02:09:00,
2013-08-18 22:14:00,66.1,64.9,30.10,West,279,0.0,0.0,96,0.00,,---,0.01,0.00,VWS V14.01,2013-08-19 02:14:00,
2013-08-18 22:19:00,66.0,64.8,30.10,West,279,0.0,0.0,96,0.00,,---,0.01,0.00,VWS V14.01,2013-08-19 02:19:00,
2013-08-18 22:24:00,66.0,64.8,30.10,West,279,0.0,1.0,96,0.00,,---,0.01,0.00,VWS V14.01,2013-08-19 02:24:00,
2013-08-18 22:29:00,66.0,64.8,30.10,West,279,0.0,0.0,96,0.00,,---,0.01,0.00,VWS V14.01,2013-08-19 02:29:00,
2013-08-18 22:34:00,65.9,64.7,30.10,West,279,0.0,0.0,96,0.00,,---,0.01,0.00,VWS V14.01,2013-08-19 02:34:00,
2013-08-18 22:39:00,65.9,64.7,30.10,West,279,0.0,0.0,96,0.00,,---,0.01,0.00,VWS V14.01,2013-08-19 02:39:00,
2013-08-18 22:44:00,65.9,64.7,30.10,West,279,0.0,0.0,96,0.00,,---,0.01,0.00,VWS V14.01,2013-08-19 02:44:00,
2013-08-18 22:49:00,65.9,64.7,30.10,West,279,0.0,0.0,96,0.00,,---,0.01,0.00,VWS V14.01,2013-08-19 02:49:00,
2013-08-18 22:54:00,65.8,64.6,30.10,West,279,0.0,0.0,96,0.00,,---,0.01,0.00,VWS V14.01,2013-08-19 02:54:00,
2013-08-18 22:59:00,65.8,64.6,30.10,West,279,0.0,0.0,96,0.00,,---,0.01,0.00,VWS V14.01,2013-08-19 02:59:00,
2013-08-18 23:05:00,65.8,64.9,30.10,West,279,0.0,0.0,97,0.00,,---,0.01,0.00,VWS V14.01,2013-08-19 03:05:00,
2013-08-18 23:10:00,65.8,64.9,30.10,West,279,0.0,0.0,97,0.00,,---,0.01,0.00,VWS V14.01,2013-08-19 03:10:00,
2013-08-18 23:15:00,65.8,64.9,30.10,West,279,0.0,0.0,97,0.00,,---,0.01,0.00,VWS V14.01,2013-08-19 03:15:00,
2013-08-18 23:20:00,65.7,64.8,30.10,West,279,0.0,0.0,97,0.00,,---,0.01,0.00,VWS V14.01,2013-08-19 03:20:00,
2013-08-18 23:25:00,65.7,64.8,30.10,West,279,0.0,0.0,97,0.00,,---,0.01,0.00,VWS V14.01,2013-08-19 03:25:00,
2013-08-18 23:30:00,65.7,64.8,30.10,West,279,0.0,0.0,97,0.00,,---,0.01,0.00,VWS V14.01,2013-08-19 03:30:00,
2013-08-18 23:35:00,65.7,64.8,30.10,West,279,0.0,0.0,97,0.00,,---,0.01,0.00,VWS V14.01,2013-08-19 03:35:00,
2013-08-18 23:40:00,65.7,64.8,30.09,West,279,0.0,0.0,97,0.00,,---,0.01,0.00,VWS V14.01,2013-08-19 03:40:00,
2013-08-18 23:45:00,65.7,64.8,30.09,West,279,0.0,0.0,97,0.00,,---,0.01,0.00,VWS V14.01,2013-08-19 03:45:00,
2013-08-18 23:50:00,65.6,64.7,30.09,West,279,0.0,0.0,97,0.00,,---,0.01,0.00,VWS V14.01,2013-08-19 03:50:00,
2013-08-18 23:55:00,65.6,64.7,30.09,West,279,0.0,0.0,97,0.00,,---,0.01,0.00,VWS V14.01,2013-08-19 03:55:00,